Orange, MA

9:44 AM EDT on September 28, 2016 (GMT -0400)
Orange Municipal

Weather History for KORE - October, 2013

Change the Weather History Date:

Wednesday, October 9, 2013

  Actual Average Record
Temperature  
Mean Temperature 48 °F -  
Max Temperature 64 °F 61 °F 82 °F (2011)
Min Temperature 33 °F 37 °F 23 °F (2001)
Degree Days  
Heating Degree Days 17    
Moisture  
Dew Point 36 °F    
Average Humidity 86    
Maximum Humidity 100    
Minimum Humidity 37    
Precipitation  
Precipitation 0.00 in - - ()
Sea Level Pressure  
Sea Level Pressure 30.42 in    
Wind  
Wind Speed 1 mph (ENE)    
Max Wind Speed 7 mph    
Max Gust Speed -    
Visibility 6 miles    
Events Fog    
Averages and records for this station are not official NWS values.
T = Trace of Precipitation, MM = Missing Value Source: NWS Daily Summary

Daily Weather History Graph

Daily Weather History Graph

Search for Another Location

Airport or City:

Trip Planner

Search our weather history database for the weather conditions in past years. The results will help you decide how hot, cold, wet, or windy it might be!

Date:

Astronomy

Oct. 09, 2013 Rise Set
Actual Time 6:55 AM EDT 6:16 PM EDT
Civil Twilight 6:27 AM EDT 6:44 PM EDT
Nautical Twilight 5:54 AM EDT 7:17 PM EDT
Astronomical Twilight 5:21 AM EDT 7:49 PM EDT
Moon 11:53 AM EDT (10/9) 9:43 PM EDT (10/9)
Length of Visible Light 12h 17m
Length of Day
11h 20m
Waxing Crescent, 25% of the Moon is Illuminated
Oct 9
Waxing Crescent
Oct 11
First Quarter
Oct 18
Full
Oct 26
Last Quarter
Nov 3
New

Hourly Weather History & Observations

Time (EDT) Temp. Dew Point Humidity Pressure Visibility Wind Dir Wind Speed Gust Speed Precip Events Conditions
12:52 AM 37.0 °F 36.0 °F 96% 30.40 in 10.0 mi Calm Calm - N/A   Clear
1:45 AM 37.4 °F 35.6 °F 93% 30.40 in 10.0 mi Calm Calm - N/A   Scattered Clouds
1:52 AM 37.0 °F 36.0 °F 96% 30.41 in 10.0 mi Calm Calm - N/A   Scattered Clouds
2:02 AM 35.6 °F 35.6 °F 100% 30.40 in 1.8 mi Calm Calm - N/A   Scattered Clouds
2:06 AM 35.6 °F 35.6 °F 100% 30.40 in 1.0 mi Calm Calm - N/A   Mist
2:20 AM 35.6 °F 35.6 °F 100% 30.40 in 0.5 mi Calm Calm - N/A Fog Fog
2:25 AM 35.6 °F 35.6 °F 100% 30.40 in 1.0 mi Calm Calm - N/A   Clear
2:28 AM 35.6 °F 35.6 °F 100% 30.40 in 1.5 mi Calm Calm - N/A   Clear
2:37 AM 35.6 °F 35.6 °F 100% 30.40 in 0.8 mi Calm Calm - N/A   Mist
2:47 AM 35.6 °F 33.8 °F 93% 30.40 in 1.5 mi Calm Calm - N/A   Scattered Clouds
2:49 AM 35.6 °F 33.8 °F 93% 30.40 in 3.0 mi Calm Calm - N/A   Partly Cloudy
2:52 AM 35.1 °F 34.0 °F 96% 30.41 in 6.0 mi Calm Calm - N/A   Partly Cloudy
3:50 AM 35.6 °F 33.8 °F 93% 30.41 in 4.0 mi Calm Calm - N/A   Mostly Cloudy
3:52 AM 35.1 °F 34.0 °F 96% 30.42 in 2.0 mi Calm Calm - N/A   Mostly Cloudy
3:59 AM 33.8 °F 33.8 °F 100% 30.41 in 1.2 mi Calm Calm - N/A   Mostly Cloudy
4:04 AM 35.6 °F 33.8 °F 93% 30.42 in 1.2 mi Calm Calm - N/A   Scattered Clouds
4:16 AM 35.6 °F 33.8 °F 93% 30.42 in 0.8 mi Calm Calm - N/A   Mist
4:30 AM 33.8 °F 33.8 °F 100% 30.42 in 1.2 mi Calm Calm - N/A   Scattered Clouds
4:35 AM 33.8 °F 33.8 °F 100% 30.43 in 2.0 mi Calm Calm - N/A   Scattered Clouds
4:43 AM 33.8 °F 33.8 °F 100% 30.43 in 8.0 mi Calm Calm - N/A   Partly Cloudy
4:52 AM 34.0 °F 33.1 °F 96% 30.44 in 10.0 mi Calm Calm - N/A   Clear
5:39 AM 33.8 °F 32.0 °F 93% 30.43 in 1.5 mi Calm Calm - N/A   Clear
5:52 AM 33.1 °F 32.0 °F 96% 30.45 in 1.5 mi Calm Calm - N/A   Clear
6:02 AM 33.8 °F 33.8 °F 100% 30.43 in 3.0 mi Calm Calm - N/A   Clear
6:34 AM 33.8 °F 32.0 °F 93% 30.44 in 1.8 mi Calm Calm - N/A   Clear
6:43 AM 33.8 °F 32.0 °F 93% 30.45 in 3.0 mi Calm Calm - N/A   Clear
6:52 AM 33.1 °F 32.0 °F 96% 30.47 in 9.0 mi Calm Calm - N/A   Clear
6:59 AM 33.8 °F 32.0 °F 93% 30.45 in 5.0 mi Calm Calm - N/A   Scattered Clouds
7:52 AM 35.1 °F 34.0 °F 96% 30.48 in 10.0 mi Calm Calm - N/A   Clear
8:52 AM 44.1 °F 39.9 °F 85% 30.48 in 10.0 mi Calm Calm - N/A   Clear
9:52 AM 50.0 °F 39.9 °F 68% 30.49 in 10.0 mi North 4.6 mph - N/A   Clear
10:52 AM 55.9 °F 41.0 °F 57% 30.48 in 10.0 mi North 5.8 mph - N/A   Clear
11:52 AM 57.9 °F 37.0 °F 46% 30.46 in 10.0 mi East 4.6 mph - N/A   Clear
12:52 PM 61.0 °F 37.0 °F 41% 30.44 in 10.0 mi Variable 5.8 mph - N/A   Clear
1:52 PM 62.1 °F 35.1 °F 37% 30.43 in 10.0 mi ENE 4.6 mph - N/A   Clear
2:52 PM 63.0 °F 36.0 °F 37% 30.40 in 10.0 mi NE 6.9 mph - N/A   Clear
3:52 PM 63.0 °F 36.0 °F 37% 30.40 in 10.0 mi East 6.9 mph - N/A   Clear
4:52 PM 62.1 °F 39.0 °F 43% 30.38 in 10.0 mi East 5.8 mph - N/A   Clear
5:52 PM 57.0 °F 43.0 °F 59% 30.39 in 10.0 mi East 3.5 mph - N/A   Clear
6:52 PM 51.1 °F 45.0 °F 80% 30.40 in 10.0 mi Calm Calm - N/A   Clear
7:52 PM 48.0 °F 45.0 °F 89% 30.39 in 10.0 mi Calm Calm - N/A   Clear
8:52 PM 45.0 °F 43.0 °F 93% 30.40 in 10.0 mi Calm Calm - N/A   Clear
9:52 PM 44.1 °F 42.1 °F 93% 30.40 in 10.0 mi Calm Calm - N/A   Clear
10:52 PM 42.1 °F 39.9 °F 92% 30.39 in 10.0 mi Calm Calm - N/A   Clear
11:35 PM 41.0 °F 39.2 °F 93% 30.37 in 1.8 mi Calm Calm - N/A   Clear
11:52 PM 39.9 °F 39.0 °F 97% 30.38 in 5.0 mi Calm Calm - N/A   Clear